This is the latest recevied weather packets stored in our database for station/object KE6YLF. If no packets are shown the sender has not sent any weather packets the latest 10 day(s).
| Time | Temp. | Humidity | Pressure | Rain* | Wind** | Luminosity | Snow |
|---|---|---|---|---|---|---|---|
| 1778372475 | 37.22° C | 14% | 1071.2 hPa | 0 mm | - | - | - |
| 1778372172 | 37.78° C | 14% | 1071.2 hPa | 0 mm | - | - | - |
| 1778371871 | 37.78° C | 14% | 1071.1 hPa | 0 mm | - | - | - |
| 1778371571 | 37.78° C | 14% | 1071.2 hPa | 0 mm | - | - | - |
| 1778371268 | 38.33° C | 14% | 1071 hPa | 0 mm | - | - | - |
| 1778370964 | 38.33° C | 14% | 1071.3 hPa | 0 mm | - | - | - |
| 1778370661 | 37.78° C | 14% | 1071.4 hPa | 0 mm | - | - | - |
| 1778370357 | 37.78° C | 14% | 1071.3 hPa | 0 mm | - | - | - |
| 1778370055 | 38.33° C | 14% | 1071.4 hPa | 0 mm | - | - | - |
| 1778369752 | 38.33° C | 14% | 1071.5 hPa | 0 mm | - | - | - |
| 1778369450 | 38.33° C | 14% | 1071.3 hPa | 0 mm | - | - | - |
| 1778369146 | 37.22° C | 14% | 1071.5 hPa | 0 mm | - | - | - |
| 1778368843 | 37.78° C | 14% | 1071.6 hPa | 0 mm | - | - | - |
| 1778368539 | 38.89° C | 14% | 1071.4 hPa | 0 mm | - | - | - |
| 1778368237 | 38.33° C | 14% | 1071.7 hPa | 0 mm | - | - | - |
| 1778367934 | 38.33° C | 14% | 1071.7 hPa | 0 mm | - | - | - |
| 1778367631 | 38.89° C | 14% | 1071.5 hPa | 0 mm | - | - | - |
| 1778367326 | 38.33° C | 14% | 1071.8 hPa | 0 mm | - | - | - |
| 1778367022 | 39.44° C | 13% | 1071.8 hPa | 0 mm | - | - | - |
| 1778366718 | 38.33° C | 14% | 1071.8 hPa | 0 mm | - | - | - |
| 1778366414 | 38.89° C | 13% | 1072 hPa | 0 mm | - | - | - |
| 1778366112 | 38.89° C | 14% | 1072 hPa | 0 mm | - | - | - |
| 1778365810 | 38.33° C | 14% | 1072 hPa | 0 mm | - | - | - |
| 1778365505 | 38.33° C | 14% | 1072 hPa | 0 mm | - | - | - |
| 1778365201 | 38.33° C | 14% | 1072.1 hPa | 0 mm | - | - | - |
* Rain latest hour (hover to see other rain measurements)
** Current wind speed in m/s (hover to see current wind gust speed)